sat.trackr.live / text

‹ back to catalog

USA 271

NORAD 41745 · 2016-052B

PAYLOAD ACTIVE UNKNOWN

§ Identity

Operator
Country
US
Launch date
2016-08-19
Launch site
AFETR
Launch vehicle
Mass (kg)
RCS (m²)

Purposes: comms

External: N2YO · Heavens-Above · Gunter

§ Orbital elements

Epoch: 2026-09-18T01:47:10.598208Z

Period
1,453.64 min
Inclination
4.4031°
Eccentricity
0.0002858
Mean motion
0.99061684 rev/d
Perigee alt
36,117.1 km
Apogee alt
36,141.4 km
Semi-major
42,507.4 km
B*
0.0000e+0
RAAN
76.0291°
Arg perigee
172.7394°
Mean anomaly
168.8547°
Rev number
2,884

§ Raw data

USA 2711 41745U 16052B   26261.07442822  .00000012  00000+0  00000+0 0  99922 41745   4.4031  76.0291 0002858 172.7394 168.8547  0.99061684 28840

JSON: /api/v1/satellites/41745 · /tle

For live sub-satellite position, see the globe view (requires WebGL).

§ Visibility from observer

Set your observer location to see the next 7 days of passes ≥ 10°. The values pass through the URL so the page stays shareable.

No JS? Fill the form by hand. The geolocation button needs JavaScript.